Hardin, MT

6:37 AM MDT on May 04, 2015 (GMT -0600)
South Big Horn County | | Change Station
CLOSE
Current Station
Airport
Location: Greybull,
Elevation: 3934 ft
Nearby Weather Stations

Elev 3934 ft 44.52 °N, 108.08 °W | Updated 44 minutes ago

Partly Cloudy
Partly Cloudy
49 °F
Feels Like 49 °F
N
0
Wind Variable Wind from North

Today
High -- | Low -- °F
--% Chance of Precip.
Yesterday
High -- | Low -- °F
Precip. -- in
5:53 AM 8:21 PM
Full, 100% visible
Pressure 29.93 in
Visibility 10.0 miles
Clouds Mostly Cloudy 12000 ft
Dew Point 38 °F
Humidity 66%
Rainfall 0.00 in
Snow Depth Not available.
UV 0 out of 12
Pollen 9.20 out of 12
Air Quality Not available.
Flu Activity Local Activity
METAR KGEY 041153Z AUTO 00000KT 10SM BKN120 09/03 A2999 RMK AO2 SLP134 60000 T00940033 10161 20094 53001 $

More Conditions Fewer Conditions

Pressure 29.93 in
Visibility 10.0 miles
Clouds Mostly Cloudy 12000 ft
Dew Point 38 °F
Humidity 66%
Rainfall 0.00 in
Snow Depth Not available.
UV 0 out of 12
Pollen 9.20 out of 12
Air Quality Not available.
Flu Activity Local Activity
METAR KGEY 041153Z AUTO 00000KT 10SM BKN120 09/03 A2999 RMK AO2 SLP134 60000 T00940033 10161 20094 53001 $

More Conditions Fewer Conditions

Nepal has a long way to go to dig out and rebuild from a devastating earthquake. We have teamed up with several charities and organizations to make contributing to the relief effort as easy as possible.
How you can help: Portlight Strategies | Red Cross

10-Day Weather Forecast

Almanac

Astronomy

May. 04, 2015 Rise Set
Actual Time
Civil Twilight
Nautical Twilight
Astronomical Twilight
Moon
Length of Visible Light
Length of Day
Tomorrow will be .
, % of the Moon is Illuminated

Today's Extremes

State Highs State Lows

Community

WunderPhotos

Upload Photos

1,818,582 photos uploaded!

WunderBlogs® & News

Nearby

Air Quality

  Air Quality AQ Index Pollutant
Not available.

Snow Depth

Station Depth Elevation

Earthquake Activity

City Distance Mag. Time & Date
Minimum magnitude displayed is 2.5.

Coastal Water Temperatures

Place Temperature

Stations

Nearby Weather Stations

Station Location Temp. Windchill Dew Point Humidity Wind Precip. Elev Updated Type